Volver al catálogo

KUIPER-00244

ActivoComunicacionesLEO
NORAD 68583·PAYLOAD·🇺🇸 United States

Lanzado Apr 4, 2026 desde Cape Canaveral Space Force Station

Loading…

Próximos Pases (próximas 24 horas)

TLE

ActualizadoSource: CelesTrak SupGP

Época: Sep 14, 2026, 19:01 UTC

1 68583C 26072L   26257.79276620 -.00000595  00000+0 -77885-4 0  2574
2 68583  51.8983 144.4265 0001042  89.8529 129.1571 14.79923248    16

Sigue KUIPER-00244 en tiempo real con AllMySat

Download on the App Store